Regional Weather Roundup
Issued by NWS

Home | Current Version | Previous Version | Graphics & Text | Print | Product List | Glossary On
Versions: 1 2 3 4 5 6 7 8 9 10 11 12 13 14 15 16 17 18 19 20 21 22 23 24 25 26 27 28 29 30 31 32 33 34 35 36 37 38 39 40 41 42 43 44 45 46 47 48 49 50
000
ASUS43 KIND 020059
RWRIN

WEATHER ROUNDUP FOR INDIANA
NATIONAL WEATHER SERVICE INDIANAPOLIS IN
800 PM EST THU DEC 01 2016

NOTE: "FAIR" INDICATES FEW OR NO CLOUDS BELOW 12,000 FEET WITH NO
SIGNIFICANT WEATHER AND/OR OBSTRUCTIONS TO VISIBILITY.

* - STATION DOES NOT REPORT WEATHER SUCH AS PRECIPITATION OR FOG.

+ - STATION NOT QUALITY CONTROLLED BY THE NATIONAL WEATHER SERVICE.
    USE DATA WITH CAUTION...ESPECIALLY DEWPOINT AND RELATIVE
    HUMIDITY OBSERVATIONS.

INZ001>003-010>013-019-020-020200-
NORTHWEST INDIANA

CITY           SKY/WX    TMP DP  RH WIND       PRES   REMARKS
GARY /AIRPORT/ CLOUDY    41  32  70 W15       29.96R
MONTICELLO +   CLOUDY    37  28  68 W12G17    30.00R

$$

LMZ046-743>745-020200-
SOUTHERN LAKE MICHIGAN

STATION/POSITION TIME  TEMP    WIND        PRES    WAVE
                       AIR SEA DIR/SP/G            HT
                 (UTC) (F)     (DEG/KT/KT) (MB)    (FT)
BURNS HARBOR     0040   41     260/ 18/ 22 1014.9R
MICHIGAN CITY    0030   40     230/ 22/ 24   N/A

$$

INZ004-005-014>016-021>024-020200-
NORTH CENTRAL INDIANA

CITY           SKY/WX    TMP DP  RH WIND       PRES   REMARKS
ELKHART        CLOUDY    39  32  75 W14       29.93R
GOSHEN         CLOUDY    39  30  70 W15       29.93R
SOUTH BEND     CLOUDY    38  31  76 SW12      29.94R
WARSAW +       CLOUDY    37  32  81 W13       29.95R

$$

INZ006>009-017-018-025>027-020200-
NORTHEAST INDIANA

CITY           SKY/WX    TMP DP  RH WIND       PRES   REMARKS
ANGOLA *+      CLOUDY    37  34  87 W13       29.91R
FORT WAYNE     CLOUDY    38  32  79 SW14      29.96R
KENDALLVILLE + CLOUDY    38  32  79 W17G23    29.92R

$$

INZ028-029-035-036-043>045-051>053-020200-
WEST CENTRAL INDIANA

CITY           SKY/WX    TMP DP  RH WIND       PRES   REMARKS
CRAWFORDSVL +  CLOUDY    35  31  86 SW8       30.02R WCI  28
GREENCASTLE +  CLOUDY    36  32  87 W7        30.04R
LAFAYETTE      CLOUDY    37  30  75 W12       30.02R
TERRE HAUTE    CLOUDY    37  29  72 W12       30.06R

$$

INZ030>032-037>040-046>048-054>057-064-065-020200-
CENTRAL INDIANA

CITY           SKY/WX    TMP DP  RH WIND       PRES   REMARKS
COLUMBUS       CLOUDY    37  30  75 NW5       30.04R
GREENWOOD *+   CLOUDY    37  30  75 W8        30.03R
INDIANAPOLIS   CLOUDY    37  29  72 W12       30.03R
-EAGLE CREEK   CLOUDY    38  29  70 W6        30.02R
KOKOMO +       CLOUDY    37  30  75 SW15      30.00R
SHELBYVILLE    CLOUDY    38  28  67 W12       30.03R
ZIONSVILLE +   CLOUDY    36  31  82 W8        30.02R

$$

INZ033-034-041-042-049-050-058-059-020200-
EAST CENTRAL INDIANA

CITY           SKY/WX    TMP DP  RH WIND       PRES   REMARKS
MUNCIE         CLOUDY    38  30  73 SW10      29.99S

$$

INZ060-061-067>069-081>083-085>088-020200-
SOUTHWEST INDIANA

CITY           SKY/WX    TMP DP  RH WIND       PRES   REMARKS
EVANSVILLE     CLEAR     39  29  67 CALM      30.09R
HUNTINGBURG *+ CLEAR     34  28  80 NW6       30.08R WCI  29

$$

INZ062-063-066-070>080-084-089>092-020200-
SOUTH CENTRAL AND SOUTHEAST INDIANA

CITY           SKY/WX    TMP DP  RH WIND       PRES   REMARKS
BLOOMINGTON    CLOUDY    37  28  70 W6        30.04R
MADISON *+     PTCLDY    36  28  75 NW3       30.05R
SEYMOUR +      CLOUDY    39  30  70 W8        30.05R

$$





USA.gov is the U.S. government's official web portal to all federal, state and local government web resources and services.